Terminal Aerodrome Forecast
Issued by NWS

Home | Current Version | Previous Version | Text Only | Print | Product List | Glossary On
Versions: 1 2 3 4 5 6 7 8 9 10 11 12
000
FTAK31 PANC 181135
TAFATK
TAF
PATK 181135Z 1812/1912 VRB03KT P6SM VCSH SCT040 BKN060
     FM190000 VRB04KT P6SM SCT050 BKN090=

USA.gov is the U.S. government's official web portal to all federal, state and local government web resources and services.